| time (UTC) | temp C | wind direction | speed KPH | gust KPH | rain 1hr cm | rain 24hr cm | rain mn cm | humidity % | barometer mb |
| 20260506024027 | 8 | 183 | 8.0 | 11.3 | 0.00 | 0.00 | 0.00 | 86 | 976.0 |
| 20260506023527 | 8 | 184 | 6.4 | 8.0 | 0.00 | 0.00 | 0.00 | 86 | 976.0 |
| 20260506023027 | 8 | 190 | 6.4 | 11.3 | 0.00 | 0.00 | 0.00 | 86 | 976.0 |
| 20260506022526 | 8 | 195 | 3.2 | 4.8 | 0.00 | 0.00 | 0.00 | 86 | 976.0 |
| 20260506022025 | 8 | 201 | 3.2 | 4.8 | 0.00 | 0.00 | 0.00 | 86 | 976.1 |
| 20260506021524 | 9 | 188 | 6.4 | 11.3 | 0.00 | 0.00 | 0.00 | 86 | 976.1 |
| 20260506021023 | 9 | 210 | 3.2 | 4.8 | 0.00 | 0.00 | 0.00 | 86 | 976.1 |
| 20260506020523 | 9 | 195 | 3.2 | 4.8 | 0.00 | 0.00 | 0.00 | 85 | 976.1 |
| 20260506020023 | 9 | 186 | 1.6 | 3.2 | 0.00 | 0.00 | 0.00 | 85 | 976.2 |
| 20260506015522 | 9 | 194 | 4.8 | 9.7 | 0.00 | 0.00 | 0.00 | 84 | 976.2 |
| 20260506015022 | 9 | 197 | 3.2 | 6.4 | 0.00 | 0.00 | 0.00 | 83 | 976.1 |
| 20260506014522 | 9 | 197 | 4.8 | 6.4 | 0.00 | 0.00 | 0.00 | 82 | 976.0 |
| 20260506014022 | 9 | 270 | 3.2 | 8.0 | 0.00 | 0.00 | 0.00 | 82 | 976.0 |
| 20260506013522 | 9 | 219 | 1.6 | 3.2 | 0.00 | 0.00 | 0.00 | 81 | 976.0 |
| 20260506013021 | 9 | 194 | 3.2 | 4.8 | 0.00 | 0.00 | 0.00 | 80 | 976.0 |
| 20260506012521 | 9 | 184 | 6.4 | 8.0 | 0.00 | 0.00 | 0.00 | 79 | 976.0 |
| 20260506012021 | 9 | 0 | 0.0 | 0.0 | 0.00 | 0.00 | 0.00 | 79 | 976.0 |
| 20260506010959 | 9 | 186 | 4.8 | 6.4 | 0.00 | 0.00 | 0.00 | 79 | 975.8 |
| 20260506010458 | 9 | 189 | 3.2 | 4.8 | 0.00 | 0.00 | 0.00 | 79 | 975.7 |
| 20260506005957 | 9 | 174 | 3.2 | 4.8 | 0.00 | 0.00 | 0.00 | 79 | 975.5 |
| 20260506005457 | 9 | 184 | 3.2 | 4.8 | 0.00 | 0.00 | 0.00 | 79 | 975.5 |
| 20260506004957 | 9 | 177 | 3.2 | 4.8 | 0.00 | 0.00 | 0.00 | 78 | 975.6 |
| 20260506003414 | 9 | 168 | 3.2 | 4.8 | 0.00 | 0.00 | 0.00 | 78 | 975.4 |
| 20260506002914 | 9 | 170 | 3.2 | 4.8 | 0.00 | 0.00 | 0.00 | 78 | 975.3 |
| 20260506002414 | 9 | 188 | 4.8 | 4.8 | 0.00 | 0.00 | 0.00 | 78 | 975.3 |
| 20260506001913 | 9 | 183 | 4.8 | 4.8 | 0.00 | 0.00 | 0.00 | 78 | 975.2 |
| 20260506000851 | 9 | 174 | 3.2 | 3.2 | 0.00 | 0.00 | 0.00 | 78 | 975.3 |
| 20260505235309 | 9 | 129 | 3.2 | 4.8 | 0.00 | 0.00 | 0.00 | 77 | 975.1 |
| 20260505234808 | 10 | 104 | 3.2 | 4.8 | 0.00 | 0.00 | 0.00 | 77 | 975.0 |
| 20260505234308 | 10 | 143 | 3.2 | 4.8 | 0.00 | 0.00 | 0.00 | 77 | 975.0 |
| 20260505233807 | 10 | 120 | 1.6 | 3.2 | 0.00 | 0.00 | 0.00 | 77 | 975.1 |
| 20260505232746 | 10 | 130 | 1.6 | 3.2 | 0.00 | 0.00 | 0.00 | 77 | 975.2 |
| 20260505230121 | 10 | 145 | 3.2 | 4.8 | 0.00 | 0.00 | 0.00 | 76 | 975.3 |
| 20260505225621 | 10 | 139 | 3.2 | 4.8 | 0.00 | 0.00 | 0.00 | 76 | 975.3 |
| 20260505225119 | 10 | 0 | 0.0 | 0.0 | 0.00 | 0.00 | 0.00 | 76 | 975.3 |
| 20260505223016 | 9 | 212 | 0.0 | 1.6 | 0.00 | 0.00 | 0.00 | 75 | 975.2 |
| 20260505222515 | 9 | 343 | 3.2 | 4.8 | 0.00 | 0.00 | 0.00 | 76 | 975.2 |
| 20260505221454 | 9 | 14 | 3.2 | 4.8 | 0.00 | 0.00 | 0.00 | 77 | 975.2 |
| 20260505220954 | 9 | 89 | 1.6 | 3.2 | 0.00 | 0.00 | 0.00 | 76 | 975.3 |
| 20260505215932 | 9 | 63 | 1.6 | 4.8 | 0.00 | 0.00 | 0.00 | 76 | 975.4 |
| 20260505215431 | 9 | 62 | 1.6 | 4.8 | 0.00 | 0.00 | 0.00 | 76 | 975.3 |
| 20260505214931 | 9 | 23 | 3.2 | 3.2 | 0.00 | 0.00 | 0.00 | 76 | 975.3 |
| 20260505214430 | 9 | 22 | 1.6 | 3.2 | 0.00 | 0.00 | 0.00 | 76 | 975.3 |
| 20260505213930 | 9 | 244 | 1.6 | 3.2 | 0.00 | 0.00 | 0.00 | 77 | 975.4 |
| 20260505212908 | 9 | 267 | 1.6 | 3.2 | 0.00 | 0.00 | 0.00 | 76 | 975.4 |
| 20260505212407 | 9 | 0 | 0.0 | 0.0 | 0.00 | 0.00 | 0.00 | 76 | 975.4 |
| 20260505211906 | 9 | 313 | 1.6 | 4.8 | 0.00 | 0.00 | 0.00 | 76 | 975.4 |
| 20260505211406 | 9 | 336 | 6.4 | 8.0 | 0.00 | 0.00 | 0.00 | 75 | 975.4 |
| 20260505210906 | 9 | 336 | 4.8 | 6.4 | 0.00 | 0.00 | 0.00 | 75 | 975.3 |
| 20260505210405 | 9 | 324 | 3.2 | 4.8 | 0.00 | 0.00 | 0.00 | 76 | 975.3 |
| 20260505205905 | 9 | 286 | 1.6 | 3.2 | 0.00 | 0.00 | 0.00 | 76 | 975.3 |
| 20260505205404 | 9 | 337 | 6.4 | 6.4 | 0.00 | 0.00 | 0.00 | 76 | 975.4 |
| 20260505204904 | 9 | 279 | 4.8 | 6.4 | 0.00 | 0.00 | 0.00 | 75 | 975.4 |
| 20260505204403 | 9 | 328 | 4.8 | 8.0 | 0.00 | 0.00 | 0.00 | 76 | 975.4 |
| 20260505203341 | 9 | 341 | 4.8 | 8.0 | 0.00 | 0.00 | 0.00 | 76 | 975.5 |
| 20260505202841 | 9 | 313 | 8.0 | 9.7 | 0.00 | 0.00 | 0.00 | 76 | 975.5 |
| 20260505202341 | 9 | 353 | 1.6 | 3.2 | 0.00 | 0.00 | 0.00 | 77 | 975.6 |
| 20260505201840 | 9 | 330 | 4.8 | 6.4 | 0.00 | 0.00 | 0.00 | 77 | 975.6 |
| 20260505201341 | 9 | 286 | 3.2 | 4.8 | 0.00 | 0.00 | 0.00 | 77 | 975.5 |
| 20260505200840 | 9 | 306 | 4.8 | 6.4 | 0.00 | 0.00 | 0.00 | 77 | 975.4 |
| 20260505200340 | 9 | 285 | 4.8 | 8.0 | 0.00 | 0.00 | 0.00 | 76 | 975.5 |
| 20260505195318 | 9 | 285 | 4.8 | 6.4 | 0.00 | 0.00 | 0.00 | 76 | 975.4 |
| 20260505194818 | 9 | 334 | 6.4 | 8.0 | 0.00 | 0.00 | 0.00 | 77 | 975.3 |
| 20260505194318 | 9 | 285 | 4.8 | 8.0 | 0.00 | 0.00 | 0.00 | 77 | 975.2 |
| 20260505193817 | 9 | 282 | 6.4 | 9.7 | 0.00 | 0.00 | 0.00 | 76 | 975.2 |
| 20260505193316 | 9 | 301 | 4.8 | 9.7 | 0.00 | 0.00 | 0.00 | 77 | 975.1 |
| 20260505192816 | 9 | 283 | 6.4 | 8.0 | 0.00 | 0.00 | 0.00 | 77 | 975.2 |
| 20260505192315 | 8 | 291 | 6.4 | 12.9 | 0.00 | 0.00 | 0.00 | 76 | 975.1 |
| 20260505191814 | 8 | 292 | 3.2 | 6.4 | 0.00 | 0.00 | 0.00 | 78 | 975.1 |
| 20260505191313 | 8 | 299 | 4.8 | 8.0 | 0.00 | 0.00 | 0.00 | 76 | 974.9 |
| 20260505190252 | 9 | 311 | 4.8 | 8.0 | 0.00 | 0.00 | 0.00 | 77 | 974.9 |
| 20260505185752 | 9 | 280 | 6.4 | 9.7 | 0.00 | 0.00 | 0.00 | 73 | 975.0 |
| 20260505184729 | 10 | 325 | 6.4 | 11.3 | 0.00 | 0.00 | 0.00 | 72 | 974.9 |
| 20260505184229 | 10 | 292 | 3.2 | 4.8 | 0.00 | 0.00 | 0.00 | 73 | 974.8 |
| 20260505183729 | 10 | 333 | 4.8 | 8.0 | 0.00 | 0.00 | 0.00 | 70 | 974.8 |
| 20260505183228 | 10 | 288 | 6.4 | 11.3 | 0.00 | 0.00 | 0.00 | 69 | 974.9 |
| 20260505182728 | 11 | 280 | 4.8 | 8.0 | 0.00 | 0.00 | 0.00 | 67 | 974.9 |
| 20260505182227 | 11 | 322 | 8.0 | 14.5 | 0.00 | 0.00 | 0.00 | 63 | 974.6 |
| 20260505181727 | 11 | 327 | 8.0 | 12.9 | 0.00 | 0.00 | 0.00 | 59 | 974.6 |
| 20260505180705 | 11 | 296 | 9.7 | 16.1 | 0.00 | 0.00 | 0.00 | 58 | 974.5 |
| 20260505180204 | 11 | 267 | 4.8 | 8.0 | 0.00 | 0.00 | 0.00 | 61 | 974.4 |
| 20260505175704 | 11 | 304 | 6.4 | 14.5 | 0.00 | 0.00 | 0.00 | 58 | 974.1 |
| 20260505175204 | 12 | 345 | 6.4 | 11.3 | 0.00 | 0.00 | 0.00 | 60 | 974.3 |
| 20260505174704 | 12 | 319 | 8.0 | 12.9 | 0.00 | 0.00 | 0.00 | 58 | 974.4 |
| 20260505173642 | 12 | 322 | 9.7 | 12.9 | 0.00 | 0.00 | 0.00 | 55 | 974.2 |
| 20260505173141 | 12 | 277 | 6.4 | 9.7 | 0.00 | 0.00 | 0.00 | 55 | 974.2 |
| 20260505171558 | 12 | 349 | 8.0 | 11.3 | 0.00 | 0.00 | 0.00 | 56 | 973.7 |
| 20260505170537 | 12 | 358 | 9.7 | 14.5 | 0.00 | 0.00 | 0.00 | 56 | 973.5 |
| 20260505170036 | 12 | 336 | 9.7 | 14.5 | 0.00 | 0.00 | 0.00 | 58 | 973.5 |
| 20260505165535 | 12 | 283 | 3.2 | 11.3 | 0.00 | 0.00 | 0.00 | 57 | 973.5 |
| 20260505165034 | 13 | 343 | 4.8 | 8.0 | 0.00 | 0.00 | 0.00 | 57 | 973.4 |
| 20260505164533 | 13 | 33 | 6.4 | 8.0 | 0.00 | 0.00 | 0.00 | 55 | 973.5 |
| 20260505164033 | 13 | 2 | 8.0 | 12.9 | 0.00 | 0.00 | 0.00 | 55 | 973.4 |
| 20260505163012 | 12 | 334 | 3.2 | 4.8 | 0.00 | 0.00 | 0.00 | 55 | 973.3 |
| 20260505162511 | 12 | 298 | 1.6 | 4.8 | 0.00 | 0.00 | 0.00 | 56 | 973.3 |
| 20260505162011 | 12 | 341 | 4.8 | 9.7 | 0.00 | 0.00 | 0.00 | 56 | 973.5 |
| 20260505160949 | 12 | 315 | 8.0 | 12.9 | 0.00 | 0.00 | 0.00 | 57 | 973.5 |
| 20260505160449 | 12 | 334 | 8.0 | 12.9 | 0.00 | 0.00 | 0.00 | 57 | 973.4 |
| 20260505152903 | 12 | 317 | 11.3 | 19.3 | 0.00 | 0.00 | 0.00 | 61 | 973.7 |
| 20260505152403 | 12 | 353 | 11.3 | 14.5 | 0.00 | 0.00 | 0.00 | 61 | 973.5 |
| 20260505151341 | 12 | 341 | 9.7 | 16.1 | 0.00 | 0.00 | 0.00 | 61 | 973.2 |
| 20260505150841 | 12 | 335 | 12.9 | 14.5 | 0.00 | 0.00 | 0.00 | 60 | 972.8 |
| 20260505150341 | 12 | 335 | 8.0 | 14.5 | 0.00 | 0.00 | 0.00 | 63 | 972.5 |
| 20260505124646 | 10 | 334 | 6.4 | 11.3 | 0.00 | 0.00 | 0.00 | 78 | 971.4 |
| 20260505124145 | 10 | 274 | 3.2 | 6.4 | 0.00 | 0.00 | 0.00 | 78 | 971.3 |
| 20260505123645 | 10 | 292 | 3.2 | 4.8 | 0.00 | 0.00 | 0.00 | 78 | 971.1 |
| 20260505122624 | 10 | 343 | 12.9 | 17.7 | 0.00 | 0.00 | 0.00 | 78 | 970.8 |
| 20260505122123 | 11 | 342 | 11.3 | 16.1 | 0.00 | 0.00 | 0.00 | 77 | 970.6 |
| 20260505121622 | 12 | 347 | 9.7 | 14.5 | 0.00 | 0.00 | 0.00 | 76 | 970.4 |
| 20260505121122 | 12 | 315 | 8.0 | 11.3 | 0.00 | 0.00 | 0.00 | 77 | 970.4 |
| 20260505120622 | 13 | 353 | 12.9 | 19.3 | 0.00 | 0.00 | 0.00 | 75 | 970.3 |
| 20260505120122 | 14 | 293 | 9.7 | 12.9 | 0.00 | 0.00 | 0.00 | 76 | 970.1 |
| 20260505115100 | 14 | 274 | 8.0 | 14.5 | 0.00 | 0.00 | 0.00 | 76 | 969.5 |
| 20260505114559 | 14 | 266 | 11.3 | 17.7 | 0.00 | 0.00 | 0.00 | 76 | 969.4 |
| 20260505114059 | 14 | 270 | 9.7 | 12.9 | 0.00 | 0.00 | 0.00 | 75 | 969.4 |
| 20260505113038 | 14 | 271 | 11.3 | 19.3 | 0.00 | 0.00 | 0.00 | 75 | 969.2 |
| 20260505112537 | 15 | 253 | 14.5 | 24.1 | 0.00 | 0.00 | 0.00 | 75 | 969.2 |
| 20260505111514 | 15 | 275 | 11.3 | 14.5 | 0.00 | 0.00 | 0.00 | 74 | 969.1 |
| 20260505101930 | 15 | 271 | 16.1 | 25.7 | 0.00 | 0.00 | 0.00 | 72 | 968.6 |
| 20260505101430 | 15 | 263 | 11.3 | 19.3 | 0.00 | 0.00 | 0.00 | 73 | 968.5 |
| 20260505100929 | 15 | 278 | 11.3 | 17.7 | 0.00 | 0.00 | 0.00 | 73 | 968.5 |
| 20260505095346 | 15 | 266 | 8.0 | 14.5 | 0.00 | 0.00 | 0.00 | 73 | 968.5 |
| 20260505094846 | 15 | 264 | 12.9 | 19.3 | 0.00 | 0.00 | 0.00 | 73 | 968.5 |
| 20260505094346 | 15 | 249 | 11.3 | 14.5 | 0.00 | 0.00 | 0.00 | 73 | 968.4 |
| 20260505093846 | 15 | 275 | 9.7 | 17.7 | 0.00 | 0.00 | 0.00 | 73 | 968.4 |
| 20260505093345 | 15 | 255 | 11.3 | 16.1 | 0.00 | 0.00 | 0.00 | 73 | 968.2 |
| 20260505092845 | 15 | 264 | 12.9 | 19.3 | 0.00 | 0.00 | 0.00 | 73 | 968.2 |
| 20260505092344 | 15 | 274 | 12.9 | 16.1 | 0.00 | 0.00 | 0.00 | 73 | 968.0 |
| 20260505091843 | 15 | 260 | 17.7 | 27.4 | 0.00 | 0.00 | 0.00 | 72 | 968.0 |
| 20260505091343 | 15 | 274 | 12.9 | 22.5 | 0.00 | 0.00 | 0.00 | 72 | 968.0 |
| 20260505090843 | 15 | 271 | 9.7 | 14.5 | 0.00 | 0.00 | 0.00 | 72 | 967.9 |
| 20260505090342 | 15 | 266 | 14.5 | 20.9 | 0.00 | 0.00 | 0.00 | 72 | 967.9 |
| 20260505085842 | 15 | 276 | 9.7 | 11.3 | 0.00 | 0.00 | 0.00 | 72 | 967.8 |
| 20260505085341 | 15 | 265 | 9.7 | 12.9 | 0.00 | 0.00 | 0.00 | 72 | 967.8 |
| 20260505084320 | 15 | 258 | 11.3 | 19.3 | 0.00 | 0.00 | 0.00 | 72 | 967.6 |
| 20260505083820 | 15 | 237 | 4.8 | 9.7 | 0.00 | 0.00 | 0.00 | 72 | 967.6 |
| 20260505083320 | 15 | 264 | 6.4 | 9.7 | 0.00 | 0.00 | 0.00 | 72 | 967.5 |
| 20260505082819 | 15 | 246 | 8.0 | 11.3 | 0.00 | 0.00 | 0.00 | 72 | 967.5 |
| 20260505082318 | 16 | 259 | 8.0 | 11.3 | 0.00 | 0.00 | 0.00 | 71 | 967.6 |
| 20260505081257 | 16 | 267 | 4.8 | 9.7 | 0.00 | 0.00 | 0.00 | 70 | 967.4 |
| 20260505080757 | 16 | 276 | 12.9 | 20.9 | 0.00 | 0.00 | 0.00 | 70 | 967.4 |
| 20260505080256 | 16 | 266 | 9.7 | 12.9 | 0.00 | 0.00 | 0.00 | 70 | 967.4 |
| 20260505075756 | 16 | 265 | 8.0 | 12.9 | 0.00 | 0.00 | 0.00 | 71 | 967.3 |
| 20260505074735 | 16 | 258 | 8.0 | 17.7 | 0.00 | 0.00 | 0.00 | 71 | 967.3 |
| 20260505072109 | 16 | 260 | 9.7 | 14.5 | 0.00 | 0.00 | 0.00 | 69 | 967.4 |
| 20260505071609 | 16 | 271 | 11.3 | 17.7 | 0.00 | 0.00 | 0.00 | 68 | 967.4 |
| 20260505071108 | 16 | 263 | 6.4 | 11.3 | 0.00 | 0.00 | 0.00 | 68 | 967.5 |
| 20260505070608 | 16 | 273 | 11.3 | 20.9 | 0.00 | 0.00 | 0.00 | 68 | 967.5 |
| 20260505070108 | 16 | 261 | 9.7 | 14.5 | 0.00 | 0.00 | 0.00 | 69 | 967.4 |
| 20260505065047 | 15 | 252 | 6.4 | 12.9 | 0.00 | 0.00 | 0.00 | 71 | 967.6 |
| 20260505064546 | 15 | 255 | 6.4 | 11.3 | 0.00 | 0.00 | 0.00 | 71 | 967.7 |
| 20260505064046 | 15 | 267 | 3.2 | 6.4 | 0.00 | 0.00 | 0.00 | 72 | 967.8 |
| 20260505063025 | 15 | 245 | 8.0 | 14.5 | 0.00 | 0.00 | 0.00 | 72 | 968.0 |
| 20260505062524 | 15 | 242 | 8.0 | 14.5 | 0.00 | 0.00 | 0.00 | 71 | 968.1 |
| 20260505062023 | 15 | 238 | 6.4 | 12.9 | 0.00 | 0.00 | 0.00 | 72 | 968.1 |
| 20260505061002 | 15 | 242 | 8.0 | 12.9 | 0.00 | 0.00 | 0.00 | 72 | 968.2 |
| 20260505055419 | 15 | 261 | 8.0 | 11.3 | 0.00 | 0.00 | 0.00 | 71 | 968.4 |
| 20260505054918 | 15 | 259 | 3.2 | 9.7 | 0.00 | 0.00 | 0.00 | 71 | 968.4 |
| 20260505054418 | 15 | 256 | 11.3 | 19.3 | 0.00 | 0.00 | 0.00 | 71 | 968.5 |
| 20260505053918 | 15 | 257 | 8.0 | 17.7 | 0.00 | 0.00 | 0.00 | 71 | 968.5 |
| 20260505053418 | 15 | 254 | 11.3 | 17.7 | 0.00 | 0.00 | 0.00 | 71 | 968.6 |
| 20260505052917 | 15 | 268 | 9.7 | 20.9 | 0.00 | 0.00 | 0.00 | 71 | 968.6 |
| 20260505052417 | 15 | 220 | 4.8 | 6.4 | 0.00 | 0.00 | 0.00 | 71 | 968.5 |
| 20260505051917 | 15 | 248 | 12.9 | 20.9 | 0.00 | 0.00 | 0.00 | 70 | 968.5 |
| 20260505051416 | 15 | 242 | 8.0 | 11.3 | 0.00 | 0.00 | 0.00 | 70 | 968.6 |
| 20260505050354 | 15 | 224 | 6.4 | 11.3 | 0.00 | 0.00 | 0.00 | 71 | 968.6 |
| 20260505040749 | 16 | 264 | 12.9 | 22.5 | 0.00 | 0.00 | 0.00 | 68 | 968.5 |
| 20260505040246 | 16 | 251 | 11.3 | 17.7 | 0.00 | 0.00 | 0.00 | 68 | 968.5 |
| 20260505035746 | 16 | 267 | 9.7 | 12.9 | 0.00 | 0.00 | 0.00 | 69 | 968.5 |
| 20260505035246 | 16 | 256 | 8.0 | 12.9 | 0.00 | 0.00 | 0.00 | 70 | 968.6 |
| 20260505034746 | 16 | 250 | 6.4 | 9.7 | 0.00 | 0.00 | 0.00 | 70 | 968.6 |
| 20260505034246 | 16 | 241 | 6.4 | 11.3 | 0.00 | 0.00 | 0.00 | 70 | 968.6 |
| 20260505033745 | 16 | 256 | 11.3 | 17.7 | 0.00 | 0.00 | 0.00 | 69 | 968.6 |
| 20260505033245 | 16 | 258 | 11.3 | 20.9 | 0.00 | 0.00 | 0.00 | 69 | 968.7 |
| 20260505032744 | 16 | 261 | 9.7 | 16.1 | 0.00 | 0.00 | 0.00 | 69 | 968.8 |
| 20260505032244 | 16 | 260 | 9.7 | 19.3 | 0.00 | 0.00 | 0.00 | 68 | 968.8 |
| 20260505031744 | 16 | 253 | 9.7 | 16.1 | 0.00 | 0.00 | 0.00 | 67 | 969.0 |
| 20260505030722 | 17 | 251 | 12.9 | 19.3 | 0.00 | 0.00 | 0.00 | 65 | 969.1 |
| 20260505030222 | 16 | 254 | 11.3 | 17.7 | 0.00 | 0.00 | 0.00 | 66 | 969.2 |
| 20260505025722 | 16 | 266 | 11.3 | 19.3 | 0.00 | 0.00 | 0.00 | 68 | 969.2 |
| 20260505024700 | 16 | 265 | 14.5 | 19.3 | 0.00 | 0.00 | 0.00 | 71 | 969.0 |